This is the latest recevied weather packets stored in our database for station/object OE-11399. If no packets are shown the sender has not sent any weather packets the latest 10 day(s).
| Time | Temp. | Humidity | Pressure | Rain* | Wind** | Luminosity | Snow |
|---|---|---|---|---|---|---|---|
| 1787845299 | 27.22° C | 50% | 854.6 hPa | 0 mm | - | 205 W/m² | - |
| 1787844927 | 27.22° C | 46% | 854.6 hPa | 0 mm | - | 220 W/m² | - |
| 1787844327 | 27.78° C | 44% | 854.7 hPa | 0 mm | - | 286 W/m² | - |
| 1787843500 | 28.33° C | 42% | 854.8 hPa | 0 mm | - | 323 W/m² | - |
| 1787843127 | 28.89° C | 42% | 854.7 hPa | 0 mm | - | 389 W/m² | - |
| 1787842527 | 29.44° C | 41% | 854.8 hPa | 0 mm | - | 433 W/m² | - |
| 1787841699 | 29.44° C | 38% | 854.6 hPa | 0 mm | - | 433 W/m² | - |
| 1787841327 | 29.44° C | 41% | 854.7 hPa | 0 mm | - | 470 W/m² | - |
| 1787839900 | 29.44° C | 41% | 854.7 hPa | 0 mm | - | 506 W/m² | - |
| 1787839527 | 29.44° C | 40% | 854.9 hPa | 0 mm | - | 572 W/m² | - |
| 1787838927 | 29.44° C | 43% | 854.6 hPa | 0 mm | - | 594 W/m² | - |
| 1787838100 | 28.89° C | 42% | 854.7 hPa | 0 mm | - | 624 W/m² | - |
| 1787837727 | 28.89° C | 41% | 854.9 hPa | 0 mm | - | 646 W/m² | - |
| 1787837127 | 28.89° C | 42% | 855 hPa | 0 mm | - | 646 W/m² | - |
| 1787836300 | 28.33° C | 44% | 854.8 hPa | 0 mm | - | 697 W/m² | - |
| 1787835926 | 28.33° C | 41% | 854.9 hPa | 0 mm | - | 668 W/m² | - |
| 1787835327 | 27.78° C | 44% | 855 hPa | 0 mm | - | 741 W/m² | - |
| 1787834500 | 27.78° C | 44% | 854.9 hPa | 0 mm | - | 536 W/m² | - |
| 1787834126 | 27.22° C | 45% | 855 hPa | 0 mm | - | 719 W/m² | - |
| 1787833527 | 27.22° C | 45% | 855.1 hPa | 0 mm | - | 756 W/m² | - |
| 1787832700 | 26.67° C | 47% | 855.1 hPa | 0 mm | - | 734 W/m² | - |
| 1787832327 | 26.67° C | 48% | 855.1 hPa | 0 mm | - | 756 W/m² | - |
| 1787831726 | 26.11° C | 47% | 855.2 hPa | 0 mm | - | 763 W/m² | - |
| 1787830900 | 25.56° C | 51% | 855.3 hPa | 0 mm | - | 748 W/m² | - |
| 1787830526 | 25.56° C | 50% | 855.4 hPa | 0 mm | - | 763 W/m² | - |
* Rain latest hour (hover to see other rain measurements)
** Current wind speed in m/s (hover to see current wind gust speed)